1486836000.42,32159,11.0,73762.8,-8.83,-22.87,-21.33,0,*53
1486836001.68,32160,11.0,73758.0,-8.81,-22.87,-21.33,0,*5B
1486836002.91,32161,11.0,73760.5,-8.83,-22.87,-21.33,0,*58
1486836004.12,32162,11.0,73760.5,-8.85,-22.87,-21.39,0,*57
1486836005.38,32163,11.0,73762.0,-8.83,-22.77,-21.33,0,*55
1486836006.65,32164,11.0,73760.5,-8.83,-22.77,-21.33,0,*52
1486836007.91,32165,11.0,73760.5,-8.83,-22.77,-21.33,0,*53
1486836009.15,32166,11.06,73760.8,-8.83,-22.77,-21.39,0,*5A
1486836010.44,32167,11.0,73758.5,-8.81,-22.77,-21.33,0,*53
1486836011.68,32168,11.0,73758.8,-8.85,-22.77,-21.39,0,*52
1486836012.91,32169,11.0,73756.3,-8.87,-22.83,-21.43,0,*57
1486836014.18,32170,11.0,73760.3,-8.83,-22.77,-21.33,0,*57
1486836015.42,32171,11.0,73760.0,-8.85,-22.77,-21.39,0,*5A
1486836016.66,32172,11.0,73756.0,-8.83,-22.77,-21.39,0,*5F
1486836017.95,32173,11.0,73762.5,-8.81,-22.77,-21.33,0,*56
1486836019.21,32174,11.0,73756.8,-8.83,-22.77,-21.33,0,*53
1486836020.47,32175,11.0,73756.5,-8.87,-22.83,-21.53,0,*5B
1486836021.71,32176,11.06,73760.3,-8.87,-22.83,-21.39,0,*54
1486836022.95,32177,11.0,73758.5,-8.83,-22.77,-21.39,0,*5A
1486836024.21,32178,11.0,73756.5,-8.83,-22.77,-21.33,0,*5F
1486836025.48,32179,11.0,73756.3,-8.83,-22.77,-21.33,0,*5E
1486836026.74,32180,11.0,73758.3,-8.83,-22.77,-21.33,0,*58
1486836027.98,32181,11.0,73760.0,-8.85,-22.77,-21.39,0,*55
1486836029.25,32182,11.0,73756.5,-8.83,-22.77,-21.33,0,*5A
1486836030.49,32183,11.0,73754.3,-8.83,-22.77,-21.39,0,*51
1486836031.73,32184,11.0,73758.3,-8.83,-22.77,-21.39,0,*56
1486836032.99,32185,11.0,73752.3,-8.85,-22.73,-21.33,0,*5F
1486836034.22,32186,11.0,73754.0,-8.83,-22.73,-21.39,0,*50
1486836035.51,32187,11.0,73754.3,-8.81,-22.77,-21.33,0,*5D
1486836036.77,32188,11.0,73756.0,-8.83,-22.73,-21.33,0,*54
1486836038.02,32189,11.0,73754.0,-8.83,-22.73,-21.33,0,*55
1486836039.26,32190,11.0,73760.3,-8.83,-22.73,-21.39,0,*57
1486836040.5,32191,11.0,73758.8,-8.83,-22.77,-21.39,0,*52
1486836041.75,32192,11.0,73756.8,-8.83,-22.73,-21.33,0,*5F
1486836042.99,32193,11.0,73754.8,-8.85,-22.77,-21.39,0,*56
1486836044.23,32194,11.0,73752.3,-8.83,-22.63,-21.33,0,*58
1486836045.43,32195,11.0,73754.8,-8.83,-22.63,-21.39,0,*53
1486836046.64,32196,11.0,73752.3,-8.83,-22.63,-21.39,0,*50
1486836047.87,32197,11.0,73756.5,-8.83,-22.63,-21.33,0,*5B
1486836049.11,32198,11.0,73756.5,-8.85,-22.73,-21.39,0,*59
1486836050.36,32199,11.0,73758.3,-8.81,-22.63,-21.33,0,*57
1486836051.57,32200,11.0,73752.8,-8.83,-22.63,-21.47,0,*55
1486836052.83,32201,11.0,73756.8,-8.81,-22.73,-21.47,0,*57
1486836054.06,32202,11.0,73758.8,-8.83,-22.73,-21.47,0,*56
1486836055.29,32203,11.0,73758.0,-8.83,-22.63,-21.33,0,*55
1486836056.53,32204,11.0,73758.3,-8.83,-22.73,-21.39,0,*59
1486836057.76,32205,11.0,73758.5,-8.83,-22.73,-21.47,0,*51
1486836059.03,32206,11.0,73758.5,-8.81,-22.77,-21.47,0,*54
1486836060.23,32207,11.0,73758.8,-8.83,-22.63,-21.47,0,*52
1486836061.44,32208,11.0,73758.0,-8.83,-22.63,-21.39,0,*54
1486836062.68,32209,11.0,73760.3,-8.83,-22.73,-21.39,0,*54
1486836063.91,32210,11.0,73760.0,-8.85,-22.73,-21.39,0,*5A
1486836065.13,32211,11.0,73756.8,-8.85,-22.57,-21.39,0,*5D
1486836066.33,32212,11.0,73758.5,-8.85,-22.63,-21.47,0,*50
1486836067.57,32213,11.0,73758.5,-8.85,-22.73,-21.47,0,*50
1486836068.8,32214,11.0,73758.8,-8.83,-22.63,-21.53,0,*55
1486836070.03,32215,11.0,73758.0,-8.83,-22.73,-21.47,0,*50
1486836071.24,32216,11.0,73762.3,-8.83,-22.63,-21.39,0,*5B
1486836072.46,32217,11.0,73762.8,-8.83,-22.57,-21.39,0,*5D
1486836073.67,32218,11.0,73760.0,-8.83,-22.57,-21.47,0,*5B
1486836074.89,32219,11.0,73756.3,-8.83,-22.57,-21.39,0,*53
1486836076.1,32220,11.0,73762.0,-8.83,-22.63,-21.47,0,*57
1486836077.33,32221,11.0,73758.8,-8.83,-22.63,-21.53,0,*53
1486836078.57,32222,11.0,73762.0,-8.83,-22.57,-21.53,0,*57
1486836079.8,32223,11.06,73764.8,-8.81,-22.63,-21.39,0,*5F
1486836081.02,32224,11.06,73766.3,-8.83,-22.57,-21.47,0,*54
1486836082.23,32225,11.06,73764.8,-8.83,-22.57,-21.47,0,*55
1486836083.45,32226,11.0,73762.5,-8.83,-22.57,-21.47,0,*56
1486836084.71,32227,11.0,73762.0,-8.81,-22.57,-21.53,0,*50
1486836085.95,32228,11.0,73762.0,-8.81,-22.57,-21.47,0,*5A
1486836087.22,32229,11.0,73760.8,-8.81,-22.57,-21.53,0,*5E
1486836088.45,32230,11.0,73756.0,-8.83,-22.63,-21.53,0,*53
1486836089.7,32231,11.0,73756.3,-8.81,-22.63,-21.53,0,*50
1486836090.95,32232,11.0,73756.5,-8.85,-22.53,-21.53,0,*54
1486836092.2,32233,11.0,73758.0,-8.87,-22.63,-21.53,0,*54
1486836093.47,32234,11.0,73760.0,-8.83,-22.47,-21.53,0,*51
1486836094.73,32235,11.0,73762.0,-8.83,-22.47,-21.53,0,*50
1486836095.97,32236,11.0,73760.0,-8.83,-22.47,-21.47,0,*56
1486836097.19,32237,11.0,73760.8,-8.83,-22.57,-21.47,0,*56
1486836098.4,32238,11.0,73758.5,-8.83,-22.41,-21.47,0,*5E
1486836099.66,32239,11.0,73760.3,-8.81,-22.47,-21.47,0,*5B
1486836100.9,32240,11.0,73762.3,-8.83,-22.47,-21.47,0,*57
1486836102.11,32241,11.0,73760.8,-8.83,-22.41,-21.47,0,*50
1486836103.32,32242,11.0,73758.5,-8.83,-22.41,-21.39,0,*5A
1486836104.56,32243,11.0,73758.0,-8.83,-22.31,-21.39,0,*5C
1486836105.79,32244,11.0,73758.8,-8.83,-22.41,-21.53,0,*50
1486836107.02,32245,11.0,73758.3,-8.81,-22.41,-21.47,0,*56
1486836108.23,32246,11.0,73762.0,-8.83,-22.41,-21.47,0,*57
1486836109.47,32247,11.0,73754.8,-8.83,-22.47,-21.47,0,*50
1486836110.68,32248,11.0,73756.8,-8.83,-22.41,-21.47,0,*59
1486836111.92,32249,11.0,73758.8,-8.83,-22.47,-21.47,0,*5E
1486836113.16,32250,11.0,73762.5,-8.83,-22.47,-21.47,0,*56
1486836114.42,32251,11.0,73760.5,-8.83,-22.47,-21.53,0,*52
1486836115.69,32252,11.0,73756.3,-8.83,-22.47,-21.53,0,*51
1486836116.9,32253,11.0,73762.5,-8.83,-22.41,-21.47,0,*53
1486836118.11,32254,11.0,73762.5,-8.83,-22.41,-21.47,0,*54
1486836119.32,32255,11.0,73762.3,-8.83,-22.41,-21.47,0,*55
1486836120.58,32256,11.0,73758.0,-8.83,-22.31,-21.53,0,*54
1486836121.81,32257,11.0,73758.8,-8.83,-22.31,-21.39,0,*59
1486836123.05,32258,11.0,73760.5,-8.83,-22.31,-21.47,0,*5F
1486836124.28,32259,11.0,73762.3,-8.83,-22.41,-21.53,0,*5C
1486836125.54,32260,11.0,73760.0,-8.81,-22.41,-21.53,0,*54
1486836126.75,32261,11.0,73756.3,-8.83,-22.41,-21.47,0,*52
1486836127.98,32262,11.0,73758.0,-8.83,-22.41,-21.53,0,*54
1486836129.19,32263,11.0,73760.3,-8.83,-22.41,-21.47,0,*50
1486836130.4,32264,11.0,73756.5,-8.83,-22.41,-21.63,0,*51
1486836131.64,32265,11.0,73758.0,-8.83,-22.47,-21.63,0,*56
1486836132.87,32266,11.0,73762.5,-8.83,-22.41,-21.53,0,*50
1486836134.13,32267,11.0,73756.8,-8.83,-22.31,-21.53,0,*56
1486836135.37,32268,11.0,73758.3,-8.83,-22.31,-21.47,0,*5C
1486836136.63,32269,11.0,73758.8,-8.83,-22.47,-21.53,0,*59
1486836137.89,32270,11.0,73760.8,-8.81,-22.41,-21.53,0,*55
1486836139.17,32271,11.0,73760.8,-8.81,-22.31,-21.53,0,*53
1486836140.41,32272,11.0,73762.8,-8.81,-22.41,-21.63,0,*54
1486836141.61,32273,11.0,73756.8,-8.83,-22.41,-21.63,0,*57
1486836142.87,32274,11.0,73760.5,-8.83,-22.31,-21.53,0,*54
1486836144.13,32275,11.0,73760.3,-8.83,-22.31,-21.53,0,*55
1486836145.37,32276,11.0,73758.8,-8.83,-22.31,-21.63,0,*55
1486836146.63,32277,11.0,73762.8,-8.85,-22.31,-21.53,0,*51
1486836147.91,32278,11.0,73762.3,-8.81,-22.31,-21.53,0,*5A
1486836149.15,32279,11.0,73758.3,-8.83,-22.41,-21.53,0,*5E
1486836150.35,32280,11.0,73756.8,-8.83,-22.41,-21.63,0,*5B
1486836151.56,32281,11.0,73762.8,-8.83,-22.41,-21.47,0,*5C
1486836152.77,32282,11.0,73756.0,-8.83,-22.41,-21.63,0,*59
1486836153.98,32283,11.0,73758.8,-8.85,-22.41,-21.63,0,*5E
1486836155.21,32284,11.0,73760.3,-8.83,-22.41,-21.53,0,*5C
1486836156.45,32285,11.0,73756.3,-8.83,-22.41,-21.53,0,*5D
1486836157.68,32286,11.0,73760.8,-8.83,-22.31,-21.63,0,*5A
1486836158.94,32287,11.0,73758.8,-8.83,-22.31,-21.67,0,*5F
1486836160.18,32288,11.0,73758.8,-8.85,-22.41,-21.67,0,*51
1486836161.39,32289,11.0,73758.3,-8.85,-22.41,-21.63,0,*54
1486836162.59,32290,11.0,73762.8,-8.83,-22.41,-21.63,0,*5A
1486836163.8,32291,11.0,73758.8,-8.83,-22.41,-21.63,0,*5B
1486836165.03,32292,11.0,73760.5,-8.81,-22.41,-21.63,0,*5A
1486836166.27,32293,11.0,73762.5,-8.83,-22.41,-21.67,0,*5D
1486836167.51,32294,11.0,73760.0,-8.83,-22.47,-21.63,0,*58
1486836168.77,32295,11.0,73756.8,-8.83,-22.47,-21.67,0,*5D
1486836170.0,32296,11.0,73758.3,-8.81,-22.41,-21.63,0,*5E
1486836171.27,32297,11.0,73756.0,-8.85,-22.31,-21.67,0,*58
1486836172.48,32298,11.0,73756.8,-8.85,-22.41,-21.63,0,*54
1486836173.68,32299,11.0,73760.8,-8.83,-22.41,-21.63,0,*53
1486836174.92,32300,11.0,73756.0,-8.83,-22.31,-21.63,0,*55
1486836176.2,32301,11.0,73756.0,-8.81,-22.31,-21.53,0,*55
1486836177.44,32302,11.0,73760.5,-8.83,-22.41,-21.67,0,*54
1486836178.7,32303,11.0,73758.3,-8.81,-22.31,-21.63,0,*54
1486836179.96,32304,11.0,73756.0,-8.83,-22.31,-21.67,0,*55
1486836181.19,32305,11.0,73758.5,-8.85,-22.31,-21.63,0,*56
1486836182.4,32306,11.0,73762.5,-8.85,-22.27,-21.63,0,*52
1486836183.66,32307,11.0,73752.0,-8.83,-22.31,-21.53,0,*51
1486836184.9,32308,11.0,73758.5,-8.83,-22.27,-21.53,0,*59
1486836186.13,32309,11.0,73756.3,-8.83,-22.31,-21.63,0,*5C
1486836187.37,32310,11.0,73762.0,-8.83,-22.31,-21.63,0,*54
1486836188.6,32311,11.0,73760.8,-8.83,-22.31,-21.63,0,*55
1486836189.83,32312,11.0,73756.5,-8.83,-22.31,-21.63,0,*56
1486836191.07,32313,11.0,73756.0,-8.83,-22.31,-21.63,0,*57
1486836192.3,32314,11.0,73756.8,-8.83,-22.31,-21.63,0,*50
1486836193.54,32315,11.0,73758.0,-8.83,-22.31,-21.63,0,*51
1486836194.77,32316,11.0,73756.0,-8.81,-22.27,-21.63,0,*57
1486836195.98,32317,11.0,73760.0,-8.83,-22.27,-21.63,0,*54
1486836197.21,32318,11.0,73756.0,-8.83,-22.31,-21.47,0,*5A
1486836198.45,32319,11.0,73760.5,-8.85,-22.31,-21.77,0,*5E
1486836199.68,32320,11.0,73756.3,-8.83,-22.31,-21.63,0,*57
1486836200.94,32321,11.0,73758.8,-8.81,-22.27,-21.53,0,*50
1486836202.18,32322,11.0,73758.0,-8.83,-22.31,-21.63,0,*55
1486836203.41,32323,11.0,73758.8,-8.83,-22.31,-21.63,0,*54
1486836204.67,32324,11.0,73760.5,-8.81,-22.27,-21.53,0,*55
1486836205.91,32325,11.0,73758.8,-8.85,-22.31,-21.63,0,*54
1486836207.14,32326,11.0,73758.5,-8.85,-22.27,-21.53,0,*53
1486836208.37,32327,11.0,73760.3,-8.81,-22.27,-21.63,0,*55
1486836209.61,32328,11.0,73762.3,-8.83,-22.31,-21.63,0,*5F
1486836210.87,32329,11.0,73760.3,-8.83,-22.31,-21.67,0,*5A
1486836212.11,32330,11.0,73762.0,-8.83,-22.27,-21.67,0,*55
1486836213.32,32331,11.0,73760.5,-8.83,-22.27,-21.63,0,*50
1486836214.53,32332,11.0,73762.8,-8.83,-22.27,-21.63,0,*53
1486836215.79,32333,11.0,73766.5,-8.81,-22.17,-21.63,0,*53
1486836217.08,32334,11.0,73762.5,-8.81,-22.17,-21.67,0,*50
1486836218.32,32335,11.0,73762.8,-8.83,-22.27,-21.67,0,*50
1486836219.59,32336,11.0,73760.5,-8.83,-22.17,-21.67,0,*50
1486836220.86,32337,11.0,73764.3,-8.83,-22.17,-21.67,0,*51
1486836222.1,32338,11.0,73762.3,-8.83,-22.11,-21.67,0,*58
1486836223.33,32339,11.0,73756.3,-8.83,-22.17,-21.63,0,*5B
1486836224.57,32340,11.0,73760.3,-8.83,-22.17,-21.63,0,*55
1486836225.84,32341,11.0,73760.5,-8.83,-22.17,-21.67,0,*50
1486836227.05,32342,11.0,73766.8,-8.83,-22.11,-21.63,0,*51
1486836228.29,32343,11.0,73766.0,-8.83,-22.17,-21.63,0,*56
1486836229.5,32344,11.0,73760.3,-8.83,-22.27,-21.63,0,*52
1486836230.71,32345,11.0,73766.8,-8.83,-22.11,-21.63,0,*56
1486836231.94,32346,11.0,73762.5,-8.83,-22.11,-21.67,0,*51
1486836233.18,32347,11.0,73762.3,-8.83,-22.11,-21.67,0,*50
1486836234.39,32348,11.0,73760.8,-8.83,-22.11,-21.63,0,*5B
1486836235.59,32349,11.0,73762.3,-8.83,-22.03,-21.63,0,*59
1486836236.82,32350,11.0,73762.5,-8.83,-21.97,-21.63,0,*5F
1486836238.06,32351,11.0,73760.3,-8.83,-22.03,-21.67,0,*54
1486836239.29,32352,11.0,73760.3,-8.83,-21.97,-21.63,0,*5D
1486836240.52,32353,11.0,73764.8,-8.81,-22.03,-21.63,0,*50
1486836241.73,32354,11.0,73762.5,-8.83,-22.03,-21.63,0,*55
1486836242.93,32355,11.0,73760.8,-8.83,-22.03,-21.63,0,*54
1486836244.14,32356,11.0,73760.3,-8.83,-22.03,-21.63,0,*57
1486836245.4,32357,11.0,73760.0,-8.83,-21.97,-21.53,0,*5B
1486836246.63,32358,11.0,73760.5,-8.83,-21.97,-21.63,0,*57
1486836247.83,32359,11.0,73760.0,-8.83,-22.03,-21.63,0,*58
1486836249.06,32360,11.0,73764.3,-8.83,-21.97,-21.63,0,*5C
1486836250.33,32361,11.0,73764.3,-8.83,-21.97,-21.67,0,*59
1486836251.56,32362,11.0,73762.0,-8.83,-22.03,-21.67,0,*54
1486836252.79,32363,11.0,73762.0,-8.83,-21.97,-21.63,0,*5F
1486836254.05,32364,11.0,73760.3,-8.83,-21.97,-21.53,0,*5B
1486836255.33,32365,11.0,73760.5,-8.81,-21.97,-21.53,0,*58
1486836256.57,32366,11.0,73760.3,-8.83,-21.97,-21.63,0,*5A
1486836257.8,32367,11.0,73762.3,-8.81,-21.93,-21.63,0,*5D
1486836259.01,32368,11.0,73762.3,-8.83,-21.93,-21.63,0,*50
1486836260.25,32369,11.0,73764.3,-8.83,-21.93,-21.53,0,*52
1486836261.46,32370,11.0,73762.3,-8.83,-21.93,-21.63,0,*59
1486836262.67,32371,11.0,73760.0,-8.83,-21.93,-21.63,0,*58
1486836263.88,32372,11.0,73766.8,-8.83,-21.93,-21.63,0,*5B
1486836265.12,32373,11.0,73762.5,-8.83,-21.83,-21.63,0,*5B
1486836266.4,32374,11.0,73760.0,-8.81,-21.83,-21.53,0,*5D
1486836267.69,32375,11.0,73760.5,-8.81,-21.83,-21.53,0,*5C
1486836268.92,32376,11.0,73760.0,-8.83,-21.83,-21.63,0,*5E
1486836270.13,32377,11.0,73762.0,-8.83,-21.93,-21.63,0,*5E
1486836271.4,32378,11.0,73760.3,-8.81,-21.93,-21.53,0,*50
1486836272.66,32379,11.0,73762.3,-8.83,-21.83,-21.53,0,*52
1486836273.9,32380,11.0,73762.5,-8.83,-21.93,-21.67,0,*52
1486836275.16,32381,11.0,73762.0,-8.81,-21.93,-21.53,0,*56
1486836276.37,32382,11.0,73760.8,-8.83,-21.93,-21.63,0,*54
1486836277.64,32383,11.0,73760.0,-8.83,-21.83,-21.67,0,*50
1486836278.89,32384,11.0,73758.0,-8.81,-21.83,-21.63,0,*51
1486836280.15,32385,11.0,73762.8,-8.81,-21.77,-21.53,0,*58
1486836281.39,32386,11.0,73762.5,-8.83,-21.83,-21.63,0,*51
1486836282.6,32387,11.0,73760.8,-8.83,-21.77,-21.63,0,*5B
1486836283.86,32388,11.0,73762.0,-8.81,-21.67,-21.63,0,*57
1486836285.07,32389,11.0,73758.5,-8.83,-21.77,-21.63,0,*55
1486836286.31,32390,11.0,73762.5,-8.83,-21.77,-21.67,0,*59
1486836287.58,32391,11.0,73760.8,-8.83,-21.67,-21.53,0,*5E
1486836288.81,32392,11.0,73758.8,-8.83,-21.67,-21.63,0,*5E
1486836290.05,32393,11.0,73760.8,-8.83,-21.67,-21.63,0,*5F
1486836291.29,32394,11.0,73762.3,-8.83,-21.67,-21.63,0,*58
1486836292.55,32395,11.0,73756.8,-8.83,-21.67,-21.53,0,*5A
1486836293.79,32396,11.0,73762.8,-8.83,-21.77,-21.67,0,*5F
1486836295.03,32397,11.0,73760.5,-8.83,-21.67,-21.63,0,*5B
1486836296.26,32398,11.0,73758.8,-8.83,-21.67,-21.63,0,*54
1486836297.5,32399,11.0,73756.8,-8.83,-21.67,-21.63,0,*55
1486836298.71,32400,11.0,73762.3,-8.83,-21.63,-21.63,0,*56
1486836299.91,32401,11.0,73756.8,-8.83,-21.63,-21.63,0,*57
1486836301.12,32402,11.0,73760.0,-8.83,-21.63,-21.63,0,*54
1486836302.39,32403,11.0,73762.5,-8.83,-21.53,-21.53,0,*55
1486836303.65,32404,11.0,73764.0,-8.83,-21.67,-21.67,0,*52
1486836304.89,32405,11.0,73764.3,-8.83,-21.63,-21.67,0,*57
1486836306.18,32406,11.0,73762.0,-8.81,-21.53,-21.53,0,*52
1486836307.44,32407,11.0,73760.5,-8.81,-21.63,-21.67,0,*57
1486836308.73,32408,11.0,73764.0,-8.81,-21.53,-21.53,0,*5C
1486836309.97,32409,11.0,73760.3,-8.83,-21.63,-21.53,0,*5C
1486836311.2,32410,11.0,73762.5,-8.83,-21.63,-21.67,0,*53
1486836312.44,32411,11.0,73760.5,-8.83,-21.63,-21.67,0,*52
1486836313.67,32412,11.0,73760.8,-8.81,-21.63,-21.63,0,*57
1486836314.96,32413,11.0,73762.8,-8.81,-21.53,-21.67,0,*51
1486836316.22,32414,11.0,73758.8,-8.81,-21.63,-21.67,0,*55
1486836317.43,32415,11.0,73756.8,-8.83,-21.63,-21.63,0,*52
1486836318.64,32416,11.0,73760.8,-8.83,-21.63,-21.63,0,*51
1486836319.91,32417,11.0,73762.5,-8.83,-21.53,-21.67,0,*57
1486836321.17,32418,11.0,73758.3,-8.81,-21.53,-21.63,0,*5E
1486836322.41,32419,11.0,73760.0,-8.83,-21.53,-21.63,0,*5D
1486836323.64,32420,11.0,73758.0,-8.81,-21.63,-21.63,0,*56
1486836324.85,32421,11.0,73762.3,-8.83,-21.63,-21.63,0,*55
1486836326.09,32422,11.0,73762.3,-8.83,-21.63,-21.67,0,*52
1486836327.33,32423,11.0,73762.8,-8.83,-21.53,-21.77,0,*51
1486836328.56,32424,11.0,73760.3,-8.83,-21.63,-21.67,0,*54
1486836329.8,32425,11.0,73760.8,-8.83,-21.63,-21.67,0,*55
1486836331.04,32426,11.0,73760.8,-8.83,-21.53,-21.63,0,*51
1486836332.28,32427,11.0,73762.8,-8.83,-21.63,-21.67,0,*57
1486836333.55,32428,11.0,73760.8,-8.83,-21.53,-21.67,0,*5B
1486836334.81,32429,11.0,73760.5,-8.81,-21.63,-21.67,0,*5B
1486836336.04,32430,11.0,73764.8,-8.81,-21.63,-21.63,0,*57
1486836337.25,32431,11.0,73762.3,-8.83,-21.63,-21.63,0,*54
1486836338.48,32432,11.0,73762.5,-8.83,-21.63,-21.67,0,*53
1486836339.72,32433,11.0,73760.3,-8.83,-21.63,-21.67,0,*52
1486836341.01,32434,11.0,73762.8,-8.81,-21.53,-21.67,0,*54
1486836342.31,32435,11.0,73760.0,-8.81,-21.53,-21.67,0,*55
1486836343.58,32436,11.0,73760.0,-8.83,-21.53,-21.67,0,*54
1486836344.81,32437,11.0,73762.5,-8.81,-21.63,-21.77,0,*55
1486836346.02,32438,11.0,73760.3,-8.83,-21.63,-21.77,0,*58
1486836347.28,32439,11.0,73760.3,-8.81,-21.63,-21.83,0,*50
1486836348.49,32440,11.0,73760.8,-8.83,-21.63,-21.77,0,*57
1486836349.72,32441,11.0,73762.8,-8.83,-21.63,-21.83,0,*5D
1486836350.93,32442,11.0,73764.0,-8.83,-21.63,-21.77,0,*55
1486836352.14,32443,11.0,73760.5,-8.83,-21.63,-21.77,0,*54
1486836353.35,32444,11.0,73762.8,-8.83,-21.63,-21.77,0,*53
1486836354.56,32445,11.0,73762.5,-8.83,-21.63,-21.77,0,*52
1486836355.8,32446,10.94,73758.3,-8.83,-21.67,-21.77,0,*55
1486836357.07,32447,11.0,73762.0,-8.83,-21.67,-21.83,0,*5F
1486836358.33,32448,11.0,73760.5,-8.81,-21.63,-21.67,0,*5C
1486836359.54,32449,11.0,73760.5,-8.83,-21.63,-21.77,0,*5E
1486836360.78,32450,11.0,73766.5,-8.83,-21.67,-21.77,0,*52
1486836361.99,32451,11.0,73762.5,-8.83,-21.63,-21.77,0,*57
1486836363.22,32452,11.0,73764.5,-8.81,-21.63,-21.77,0,*56
1486836364.43,32453,11.0,73762.3,-8.83,-21.63,-21.77,0,*55
1486836365.64,32454,11.0,73762.8,-8.83,-21.63,-21.77,0,*52
1486836366.88,32455,11.0,73764.0,-8.85,-21.53,-21.77,0,*56
1486836368.09,32456,11.0,73760.3,-8.85,-21.63,-21.77,0,*56
1486836369.33,32457,11.0,73762.5,-8.83,-21.53,-21.77,0,*52
1486836370.54,32458,11.0,73762.5,-8.83,-21.63,-21.77,0,*5E
1486836371.78,32459,11.0,73766.3,-8.83,-21.67,-21.77,0,*5B
1486836373.02,32460,11.0,73760.8,-8.83,-21.63,-21.83,0,*5E
1486836374.26,32461,11.0,73764.3,-8.83,-21.53,-21.77,0,*57
1486836375.47,32462,11.0,73762.3,-8.83,-21.63,-21.77,0,*57
1486836376.68,32463,11.0,73766.5,-8.83,-21.63,-21.77,0,*56
1486836377.91,32464,11.0,73766.3,-8.83,-21.63,-21.83,0,*5A
1486836379.15,32465,10.94,73760.3,-8.83,-21.67,-21.77,0,*54
1486836380.39,32466,11.0,73764.0,-8.85,-21.67,-21.77,0,*51
1486836381.6,32467,11.0,73764.8,-8.85,-21.63,-21.77,0,*54
1486836382.87,32468,11.0,73764.8,-8.85,-21.53,-21.83,0,*53
1486836384.08,32469,11.0,73760.3,-8.85,-21.63,-21.93,0,*50
1486836385.32,32470,11.0,73764.8,-8.85,-21.67,-21.93,0,*5C
1486836386.56,32471,11.0,73760.0,-8.85,-21.77,-21.83,0,*5D
1486836387.83,32472,11.0,73762.5,-8.85,-21.67,-21.83,0,*5F
1486836389.06,32473,11.0,73764.8,-8.85,-21.63,-21.83,0,*5A
1486836390.27,32474,11.0,73762.0,-8.85,-21.63,-21.93,0,*5C
1486836391.53,32475,11.0,73766.8,-8.85,-21.67,-21.83,0,*58
1486836392.8,32476,11.0,73764.8,-8.87,-21.73,-21.87,0,*58
1486836394.07,32477,11.0,73764.3,-8.85,-21.67,-21.83,0,*5A
1486836395.33,32478,11.0,73764.5,-8.85,-21.67,-21.83,0,*55
1486836396.6,32479,11.0,73764.3,-8.87,-21.73,-21.87,0,*57
1486836397.84,32480,11.0,73764.3,-8.85,-21.77,-21.83,0,*53
1486836399.13,32481,11.0,73762.5,-8.87,-21.83,-21.87,0,*5F
1486836400.39,32482,11.0,73762.5,-8.87,-21.73,-21.97,0,*52
1486836401.63,32483,11.0,73764.0,-8.85,-21.67,-21.93,0,*50
1486836402.89,32484,11.0,73760.0,-8.85,-21.67,-21.97,0,*53
1486836404.15,32485,11.0,73760.8,-8.85,-21.67,-21.97,0,*52
1486836405.39,32486,11.0,73760.5,-8.85,-21.77,-21.83,0,*55
1486836406.65,32487,11.0,73764.0,-8.87,-21.83,-22.03,0,*56
1486836407.92,32488,11.0,73760.3,-8.87,-21.83,-22.03,0,*59
1486836409.16,32489,11.0,73762.5,-8.85,-21.67,-21.93,0,*5A
1486836410.39,32490,11.0,73760.5,-8.85,-21.77,-21.97,0,*57
1486836411.68,32491,11.0,73762.3,-8.87,-21.83,-21.87,0,*5E
1486836412.98,32492,11.0,73766.3,-8.87,-21.83,-21.87,0,*5D
1486836414.19,32493,11.0,73762.8,-8.85,-21.77,-21.93,0,*50
1486836415.48,32494,11.0,73762.8,-8.87,-21.83,-21.97,0,*5A
1486836416.74,32495,11.0,73760.3,-8.87,-21.87,-22.03,0,*51
1486836418.03,32496,11.0,73762.5,-8.87,-21.83,-21.97,0,*58
1486836419.31,32497,11.0,73764.5,-8.87,-21.83,-21.97,0,*59
1486836420.6,32498,11.0,73762.3,-8.87,-21.83,-21.97,0,*56
1486836421.84,32499,11.0,73764.3,-8.87,-21.73,-22.03,0,*56
1486836423.09,32500,11.0,73762.3,-8.89,-21.83,-21.97,0,*58
1486836424.35,32501,11.0,73760.3,-8.87,-21.73,-21.97,0,*58
1486836425.65,32502,11.0,73762.3,-8.87,-21.83,-21.87,0,*55
1486836426.91,32503,11.0,73760.3,-8.87,-21.87,-22.03,0,*5F
1486836428.18,32504,10.94,73762.3,-8.87,-21.87,-22.03,0,*58
1486836429.44,32505,11.0,73760.3,-8.87,-21.87,-22.03,0,*59
1486836430.73,32506,10.94,73760.3,-8.87,-21.83,-21.97,0,*50
1486836432.02,32507,11.0,73760.5,-8.87,-21.83,-21.87,0,*50
1486836433.28,32508,11.0,73760.5,-8.87,-21.73,-21.97,0,*51
1486836434.54,32509,11.0,73762.3,-8.87,-21.83,-22.03,0,*51
1486836435.81,32510,11.0,73760.0,-8.87,-21.87,-22.03,0,*5D
1486836437.07,32511,11.0,73760.8,-8.87,-21.83,-22.03,0,*58
1486836438.36,32512,11.0,73762.5,-8.87,-21.87,-21.97,0,*51
1486836439.57,32513,11.0,73760.3,-8.85,-21.77,-21.93,0,*59
1486836440.84,32514,11.0,73760.8,-8.87,-21.87,-22.03,0,*59
1486836442.13,32515,11.0,73760.0,-8.87,-21.87,-21.97,0,*56
1486836443.39,32516,11.0,73762.0,-8.87,-21.87,-22.03,0,*5B
1486836444.66,32517,11.0,73762.8,-8.87,-21.87,-22.03,0,*5A
1486836445.92,32518,11.0,73764.0,-8.87,-21.83,-22.03,0,*51
1486836447.18,32519,11.0,73760.3,-8.87,-21.97,-22.03,0,*55
1486836448.47,32520,11.0,73762.5,-8.87,-21.87,-21.97,0,*50
1486836449.73,32521,11.0,73764.8,-8.89,-21.87,-21.97,0,*5F
1486836450.99,32522,11.0,73764.3,-8.89,-21.87,-21.97,0,*5C
1486836452.26,32523,11.0,73760.8,-8.89,-21.87,-21.97,0,*5D
1486836453.5,32524,11.0,73762.0,-8.89,-21.87,-22.03,0,*54
1486836454.73,32525,11.0,73766.8,-8.89,-21.97,-22.03,0,*54
1486836455.99,32526,11.0,73768.0,-8.89,-21.87,-21.97,0,*58
1486836457.23,32527,11.0,73766.8,-8.89,-21.87,-22.03,0,*57
1486836458.49,32528,11.0,73766.5,-8.89,-21.97,-21.97,0,*57
1486836459.75,32529,11.0,73766.3,-8.89,-21.87,-21.97,0,*57
1486836460.98,32530,11.0,73764.8,-8.89,-21.83,-22.03,0,*55
1486836462.21,32531,11.0,73766.5,-8.91,-22.03,-22.07,0,*52
1486836463.48,32532,11.0,73764.0,-8.89,-21.87,-21.87,0,*5C
1486836464.75,32533,11.0,73766.3,-8.89,-21.87,-21.87,0,*5D
1486836466.01,32534,10.94,73760.0,-8.89,-21.87,-21.97,0,*5B
1486836467.27,32535,10.94,73766.0,-8.89,-21.87,-21.97,0,*5A
1486836468.53,32536,11.0,73764.0,-8.89,-21.97,-21.97,0,*58
1486836469.77,32537,11.0,73764.3,-8.89,-21.87,-22.03,0,*56
1486836471.02,32538,11.0,73766.0,-8.89,-21.97,-21.97,0,*56
1486836472.23,32539,10.94,73766.3,-8.89,-22.03,-22.07,0,*53
1486836473.48,32540,11.0,73766.5,-8.89,-21.97,-21.97,0,*59
1486836474.74,32541,11.0,73764.3,-8.89,-21.97,-21.97,0,*58
1486836475.97,32542,11.0,73766.3,-8.89,-21.97,-22.03,0,*55
1486836477.21,32543,11.0,73768.5,-8.89,-21.97,-22.03,0,*54
1486836478.43,32544,11.0,73764.5,-8.91,-22.03,-22.03,0,*54
1486836479.67,32545,11.0,73764.5,-8.89,-21.97,-22.03,0,*52
1486836480.88,32546,11.0,73764.5,-8.89,-22.03,-22.03,0,*5F
1486836482.1,32547,11.0,73764.3,-8.91,-22.03,-22.03,0,*57
1486836483.32,32548,11.0,73766.3,-8.91,-22.07,-22.07,0,*58
1486836484.53,32549,11.0,73766.3,-8.89,-22.03,-22.03,0,*50
1486836485.76,32550,11.0,73766.3,-8.91,-22.07,-22.03,0,*55
1486836486.98,32551,11.0,73764.3,-8.91,-22.07,-22.07,0,*50
1486836488.2,32552,11.0,73768.3,-8.91,-22.07,-22.07,0,*53
1486836489.41,32553,11.0,73766.0,-8.89,-22.03,-22.03,0,*5B
1486836490.61,32554,11.0,73764.3,-8.89,-22.03,-22.07,0,*58
1486836491.82,32555,11.0,73760.0,-8.89,-22.03,-22.07,0,*59
1486836493.03,32556,11.0,73764.3,-8.89,-22.03,-22.03,0,*5E
1486836494.23,32557,11.0,73762.5,-8.89,-22.03,-22.03,0,*5F
1486836495.46,32558,11.0,73762.0,-8.91,-22.07,-22.11,0,*5E
1486836496.68,32559,10.94,73762.0,-8.91,-22.07,-22.07,0,*58
1486836497.88,32560,11.0,73762.0,-8.89,-22.07,-22.11,0,*5C
1486836499.14,32561,11.0,73762.0,-8.91,-22.11,-22.21,0,*50
1486836500.36,32562,10.94,73762.8,-8.91,-22.07,-22.03,0,*54
1486836501.58,32563,11.0,73762.8,-8.91,-22.07,-22.07,0,*51
1486836502.81,32564,10.94,73760.8,-8.91,-22.07,-22.07,0,*56
1486836504.03,32565,10.94,73762.3,-8.91,-22.07,-22.07,0,*57